Location: Pedholt
(56.0260°N, 10.2097°E)
Time: 20:43:26
(UTC+00:00)

Transit 2A Rocket - Pass Details

Date: 31 July 2021
Orbit: 586 x 917 km, 66.7° (Epoch: 27 September)

Event Time Altitude Azimuth Distance (km) Brightness Sun altitude
Rises 18:01:08 0° 293° (WNW) 3,037 10.3 10.1°
Reaches altitude 10° 18:03:45 10° 307° (NW) 2,178 9.1 9.7°
Maximum altitude 18:07:52 25° 3° (N) 1,473 6.8 9.2°
Drops below altitude 10° 18:12:19 10° 59° (ENE) 2,363 7.2 8.6°
Sets 18:15:16 0° 72° (ENE) 3,355 7.8 8.2°
